Time,TemperatureF,DewpointF,PressureIn,WindDirection,WindDirectionDegrees,WindSpeedMPH,WindSpeedGustMPH,Humidity,HourlyPrecipIn,Conditions,Clouds,dailyrainin,SoftwareType,DateUTC
2013-03-14 00:00:00,38.3,24.8,30.32,WNW,300,1.1,0.0,58,0.00,,,0.00,WeatherDisplay:10.37,2013-03-14 05:00:00,
2013-03-14 00:05:00,38.2,25.1,30.33,WSW,252,1.1,1.1,59,0.00,,,0.00,WeatherDisplay:10.37,2013-03-14 05:05:00,
2013-03-14 00:10:00,38.2,25.1,30.32,South,171,1.1,1.1,59,0.00,,,0.00,WeatherDisplay:10.37,2013-03-14 05:10:00,
2013-03-14 00:15:00,38.2,25.1,30.32,South,171,1.1,1.1,59,0.00,,,0.00,WeatherDisplay:10.37,2013-03-14 05:15:00,
2013-03-14 00:20:00,38.2,25.1,30.32,SW,219,3.5,3.5,59,0.00,,,0.00,WeatherDisplay:10.37,2013-03-14 05:20:00,
2013-03-14 00:25:00,38.3,24.8,30.32,SSW,213,1.1,1.1,58,0.00,,,0.00,WeatherDisplay:10.37,2013-03-14 05:25:00,
2013-03-14 00:30:00,38.3,24.8,30.31,SSW,196,3.5,3.5,58,0.00,,,0.00,WeatherDisplay:10.37,2013-03-14 05:30:00,
2013-03-14 00:36:00,38.3,24.8,30.31,SSW,209,1.1,1.1,58,0.00,,,0.00,WeatherDisplay:10.37,2013-03-14 05:36:00,
2013-03-14 00:41:00,38.3,24.8,30.31,WNW,288,2.3,2.3,58,0.00,,,0.00,WeatherDisplay:10.37,2013-03-14 05:41:00,
2013-03-14 00:46:00,38.4,24.9,30.31,WSW,250,1.1,0.0,58,0.00,,,0.00,WeatherDisplay:10.37,2013-03-14 05:46:00,
2013-03-14 00:51:00,38.4,24.9,30.30,SSW,194,3.5,3.5,58,0.00,,,0.00,WeatherDisplay:10.37,2013-03-14 05:51:00,
2013-03-14 00:56:00,38.3,24.8,30.30,South,184,4.0,4.0,58,0.00,,,0.00,WeatherDisplay:10.37,2013-03-14 05:56:00,
2013-03-14 01:01:00,38.2,24.7,30.31,South,187,3.5,3.5,58,0.00,,,0.00,WeatherDisplay:10.37,2013-03-14 06:01:00,
2013-03-14 01:06:00,38.2,24.3,30.31,ESE,119,3.5,3.5,57,0.00,,,0.00,WeatherDisplay:10.37,2013-03-14 06:06:00,
2013-03-14 01:11:00,38.2,24.3,30.31,North,5,1.1,0.0,57,0.00,,,0.00,WeatherDisplay:10.37,2013-03-14 06:11:00,
2013-03-14 01:16:00,38.2,24.3,30.31,SE,136,3.5,3.5,57,0.00,,,0.00,WeatherDisplay:10.37,2013-03-14 06:16:00,
2013-03-14 01:21:00,38.2,24.3,30.31,South,186,1.1,1.1,57,0.00,,,0.00,WeatherDisplay:10.37,2013-03-14 06:21:00,
2013-03-14 01:35:00,38.2,24.3,30.29,SW,235,1.0,5.0,57,0.00,,,0.00,WeatherDisplay:10.37,2013-03-14 06:35:00,
2013-03-14 01:41:00,38.1,24.2,30.29,WSW,254,2.3,2.3,57,0.00,,,0.00,WeatherDisplay:10.37,2013-03-14 06:41:00,
2013-03-14 01:46:00,38.0,24.5,30.29,SSW,193,1.1,1.1,58,0.00,,,0.00,WeatherDisplay:10.37,2013-03-14 06:46:00,
2013-03-14 01:51:00,37.9,24.0,30.29,SW,222,1.1,1.1,57,0.00,,,0.00,WeatherDisplay:10.37,2013-03-14 06:51:00,
2013-03-14 01:56:00,37.9,24.4,30.29,West,274,1.1,0.0,58,0.00,,,0.00,WeatherDisplay:10.37,2013-03-14 06:56:00,
2013-03-14 02:01:00,37.9,24.0,30.29,SW,224,2.3,2.3,57,0.00,,,0.00,WeatherDisplay:10.37,2013-03-14 07:01:00,
2013-03-14 02:06:00,37.9,24.4,30.28,NNE,24,0.0,0.0,58,0.00,,,0.00,WeatherDisplay:10.37,2013-03-14 07:06:00,
2013-03-14 02:11:00,37.9,24.4,30.28,NW,319,1.1,1.1,58,0.00,,,0.00,WeatherDisplay:10.37,2013-03-14 07:11:00,
2013-03-14 02:16:00,37.9,24.4,30.28,West,262,2.0,2.0,58,0.00,,,0.00,WeatherDisplay:10.37,2013-03-14 07:16:00,
2013-03-14 02:21:00,37.9,24.4,30.28,NW,314,1.1,0.0,58,0.00,,,0.00,WeatherDisplay:10.37,2013-03-14 07:21:00,
2013-03-14 02:27:00,37.9,24.4,30.28,SSW,209,1.1,1.1,58,0.00,,,0.00,WeatherDisplay:10.37,2013-03-14 07:27:00,
2013-03-14 02:32:00,37.9,24.4,30.28,SSW,211,1.1,1.1,58,0.00,CLR,,0.00,WeatherDisplay:10.37,2013-03-14 07:32:00,
2013-03-14 02:37:00,37.9,24.4,30.27,SW,225,1.1,0.0,58,0.00,,,0.00,WeatherDisplay:10.37,2013-03-14 07:37:00,
2013-03-14 02:42:00,37.9,24.0,30.28,SSW,207,3.5,3.5,57,0.00,,,0.00,WeatherDisplay:10.37,2013-03-14 07:42:00,
2013-03-14 02:47:00,37.9,24.4,30.27,West,273,2.3,2.3,58,0.00,,,0.00,WeatherDisplay:10.37,2013-03-14 07:47:00,
2013-03-14 02:52:00,37.9,24.4,30.27,WSW,245,1.1,1.1,58,0.00,,,0.00,WeatherDisplay:10.37,2013-03-14 07:52:00,
2013-03-14 02:57:00,37.8,24.3,30.27,South,180,3.5,3.5,58,0.00,,,0.00,WeatherDisplay:10.37,2013-03-14 07:57:00,
2013-03-14 03:02:00,37.7,24.2,30.27,South,187,1.1,1.1,58,0.00,,,0.00,WeatherDisplay:10.37,2013-03-14 08:02:00,
2013-03-14 03:07:00,37.7,24.2,30.27,West,268,2.3,2.3,58,0.00,,,0.00,WeatherDisplay:10.37,2013-03-14 08:07:00,
2013-03-14 03:12:00,37.7,24.2,30.26,West,274,0.0,0.0,58,0.00,,,0.00,WeatherDisplay:10.37,2013-03-14 08:12:00,
2013-03-14 03:17:00,37.8,23.9,30.26,SSE,165,3.0,3.0,57,0.00,,,0.00,WeatherDisplay:10.37,2013-03-14 08:17:00,
2013-03-14 03:22:00,37.9,24.0,30.26,WSW,246,1.1,1.1,57,0.00,,,0.00,WeatherDisplay:10.37,2013-03-14 08:22:00,
2013-03-14 03:27:00,38.0,24.1,30.26,SSW,212,3.5,3.5,57,0.00,,,0.00,WeatherDisplay:10.37,2013-03-14 08:27:00,
2013-03-14 03:32:00,38.1,23.8,30.26,WSW,253,1.1,1.1,56,0.00,,,0.00,WeatherDisplay:10.37,2013-03-14 08:32:00,
2013-03-14 03:37:00,38.1,23.8,30.25,South,191,2.3,2.3,56,0.00,,,0.00,WeatherDisplay:10.37,2013-03-14 08:37:00,
2013-03-14 03:42:00,38.2,23.4,30.25,WSW,238,2.3,2.3,55,0.00,,,0.00,WeatherDisplay:10.37,2013-03-14 08:42:00,
2013-03-14 03:47:00,38.3,23.5,30.25,SSW,200,1.1,1.1,55,0.00,,,0.00,WeatherDisplay:10.37,2013-03-14 08:47:00,
2013-03-14 03:52:00,38.4,23.2,30.25,South,172,2.3,2.3,54,0.00,,,0.00,WeatherDisplay:10.37,2013-03-14 08:52:00,
2013-03-14 03:57:00,38.5,23.3,30.25,South,185,3.5,3.5,54,0.00,,,0.00,WeatherDisplay:10.37,2013-03-14 08:57:00,
2013-03-14 04:02:00,38.6,22.9,30.24,SSE,168,3.5,3.5,53,0.00,,,0.00,WeatherDisplay:10.37,2013-03-14 09:02:00,
2013-03-14 04:07:00,38.8,23.1,30.24,South,174,3.5,3.5,53,0.00,,,0.00,WeatherDisplay:10.37,2013-03-14 09:07:00,
2013-03-14 04:12:00,39.0,22.8,30.24,South,182,3.5,3.5,52,0.00,,,0.00,WeatherDisplay:10.37,2013-03-14 09:12:00,
2013-03-14 04:17:00,39.1,22.9,30.23,South,182,5.0,5.0,52,0.00,,,0.00,WeatherDisplay:10.37,2013-03-14 09:17:00,
2013-03-14 04:22:00,39.3,23.1,30.23,NNE,26,3.5,3.5,52,0.00,,,0.00,WeatherDisplay:10.37,2013-03-14 09:22:00,
2013-03-14 04:27:00,39.5,22.8,30.22,South,191,2.3,2.3,51,0.00,,,0.00,WeatherDisplay:10.37,2013-03-14 09:27:00,
2013-03-14 04:32:00,39.5,22.8,30.22,South,182,2.3,2.3,51,0.00,,,0.00,WeatherDisplay:10.37,2013-03-14 09:32:00,
2013-03-14 04:37:00,39.6,22.9,30.22,SSE,165,2.3,2.3,51,0.00,,,0.00,WeatherDisplay:10.37,2013-03-14 09:37:00,
2013-03-14 04:42:00,39.6,22.9,30.22,South,169,4.6,4.6,51,0.00,,,0.00,WeatherDisplay:10.37,2013-03-14 09:42:00,
2013-03-14 04:47:00,39.6,22.9,30.21,SSE,167,4.6,4.6,51,0.00,,,0.00,WeatherDisplay:10.37,2013-03-14 09:47:00,
2013-03-14 04:52:00,39.6,22.9,30.21,South,182,4.6,4.6,51,0.00,,,0.00,WeatherDisplay:10.37,2013-03-14 09:52:00,
2013-03-14 04:57:00,39.5,22.8,30.20,South,190,5.8,5.8,51,0.00,,,0.00,WeatherDisplay:10.37,2013-03-14 09:57:00,
2013-03-14 05:02:00,39.6,22.9,30.21,South,188,6.0,6.0,51,0.00,,,0.00,WeatherDisplay:10.37,2013-03-14 10:02:00,
2013-03-14 05:07:00,39.6,22.9,30.20,SSW,210,6.9,6.9,51,0.00,,,0.00,WeatherDisplay:10.37,2013-03-14 10:07:00,
2013-03-14 05:12:00,39.6,22.9,30.20,South,181,3.5,3.5,51,0.00,,,0.00,WeatherDisplay:10.37,2013-03-14 10:12:00,
2013-03-14 05:17:00,39.5,22.8,30.20,SSE,157,3.5,3.5,51,0.00,,,0.00,WeatherDisplay:10.37,2013-03-14 10:17:00,
2013-03-14 05:22:00,39.3,22.7,30.20,SSW,201,3.5,3.5,51,0.00,,,0.00,WeatherDisplay:10.37,2013-03-14 10:22:00,
2013-03-14 05:27:00,39.3,22.7,30.19,SW,223,6.0,6.0,51,0.00,,,0.00,WeatherDisplay:10.37,2013-03-14 10:27:00,
2013-03-14 05:32:00,39.3,22.7,30.19,SSE,168,5.8,5.8,51,0.00,,,0.00,WeatherDisplay:10.37,2013-03-14 10:32:00,
2013-03-14 05:37:00,39.2,22.6,30.20,South,186,5.8,5.8,51,0.00,,,0.00,WeatherDisplay:10.37,2013-03-14 10:37:00,
2013-03-14 05:42:00,39.1,22.9,30.20,East,92,3.5,3.5,52,0.00,,,0.00,WeatherDisplay:10.37,2013-03-14 10:42:00,
2013-03-14 05:47:00,39.0,22.8,30.20,South,180,5.0,5.0,52,0.00,,,0.00,WeatherDisplay:10.37,2013-03-14 10:47:00,
2013-03-14 05:52:00,39.0,22.8,30.20,SSE,163,4.6,4.6,52,0.00,,,0.00,WeatherDisplay:10.37,2013-03-14 10:52:00,
2013-03-14 05:57:00,39.0,22.8,30.19,SSE,161,3.5,3.5,52,0.00,,,0.00,WeatherDisplay:10.37,2013-03-14 10:57:00,
2013-03-14 06:02:00,39.0,22.8,30.19,South,175,3.5,3.5,52,0.00,,,0.00,WeatherDisplay:10.37,2013-03-14 11:02:00,
2013-03-14 06:07:00,39.1,22.9,30.19,South,182,4.6,4.6,52,0.00,,,0.00,WeatherDisplay:10.37,2013-03-14 11:07:00,
2013-03-14 06:12:00,39.2,23.0,30.19,South,171,5.8,5.8,52,0.00,,,0.00,WeatherDisplay:10.37,2013-03-14 11:12:00,
2013-03-14 06:17:00,39.2,23.0,30.19,South,182,3.5,3.5,52,0.00,,,0.00,WeatherDisplay:10.37,2013-03-14 11:17:00,
2013-03-14 06:23:00,39.3,23.1,30.19,South,179,4.6,4.6,52,0.00,,,0.00,WeatherDisplay:10.37,2013-03-14 11:23:00,
2013-03-14 06:28:00,39.3,23.1,30.19,South,186,5.8,5.8,52,0.00,,,0.00,WeatherDisplay:10.37,2013-03-14 11:28:00,
2013-03-14 06:33:00,39.4,23.2,30.18,South,179,2.3,2.3,52,0.00,,,0.00,WeatherDisplay:10.37,2013-03-14 11:33:00,
2013-03-14 06:38:00,39.6,23.4,30.19,South,183,4.6,4.6,52,0.00,,,0.00,WeatherDisplay:10.37,2013-03-14 11:38:00,
2013-03-14 06:43:00,39.8,23.6,30.19,South,169,3.5,3.5,52,0.00,,,0.00,WeatherDisplay:10.37,2013-03-14 11:43:00,
2013-03-14 06:48:00,40.0,23.3,30.19,South,187,3.5,3.7,51,0.00,,,0.00,WeatherDisplay:10.37,2013-03-14 11:48:00,
2013-03-14 06:53:00,40.6,23.4,30.18,ESE,123,4.6,4.6,50,0.00,,,0.00,WeatherDisplay:10.37,2013-03-14 11:53:00,
2013-03-14 06:58:00,41.3,23.6,30.18,SSW,194,6.9,6.9,49,0.00,,,0.00,WeatherDisplay:10.37,2013-03-14 11:58:00,
2013-03-14 07:03:00,42.0,23.7,30.18,South,184,4.6,4.6,48,0.00,CLR,,0.00,WeatherDisplay:10.37,2013-03-14 12:03:00,
2013-03-14 07:08:00,42.4,23.6,30.18,SSE,162,12.0,12.0,47,0.00,CLR,,0.00,WeatherDisplay:10.37,2013-03-14 12:08:00,
2013-03-14 07:13:00,42.9,23.5,30.18,South,177,8.0,8.0,46,0.00,CLR,,0.00,WeatherDisplay:10.37,2013-03-14 12:13:00,
2013-03-14 07:18:00,43.0,23.6,30.18,WSW,254,6.9,6.9,46,0.00,CLR,,0.00,WeatherDisplay:10.37,2013-03-14 12:18:00,
2013-03-14 07:23:00,43.0,23.6,30.17,WSW,240,5.8,5.8,46,0.00,CLR,,0.00,WeatherDisplay:10.37,2013-03-14 12:23:00,
2013-03-14 07:28:00,43.0,24.1,30.17,SSE,167,8.1,8.1,47,0.00,CLR,,0.00,WeatherDisplay:10.37,2013-03-14 12:28:00,
2013-03-14 07:33:00,43.2,24.3,30.17,SSW,192,6.9,6.9,47,0.00,CLR,,0.00,WeatherDisplay:10.37,2013-03-14 12:33:00,
2013-03-14 07:38:00,43.3,24.4,30.17,East,97,12.7,12.7,47,0.00,CLR,,0.00,WeatherDisplay:10.37,2013-03-14 12:38:00,
2013-03-14 07:43:00,43.2,24.3,30.17,South,172,6.9,6.9,47,0.00,CLR,,0.00,WeatherDisplay:10.37,2013-03-14 12:43:00,
2013-03-14 07:48:00,42.9,24.0,30.17,South,175,11.5,11.5,47,0.00,CLR,,0.00,WeatherDisplay:10.37,2013-03-14 12:48:00,
2013-03-14 07:53:00,42.6,24.3,30.17,South,177,9.2,9.2,48,0.00,CLR,,0.00,WeatherDisplay:10.37,2013-03-14 12:53:00,
2013-03-14 07:58:00,42.5,24.2,30.17,SSE,164,7.0,7.0,48,0.00,CLR,,0.00,WeatherDisplay:10.37,2013-03-14 12:58:00,
2013-03-14 08:03:00,42.4,24.6,30.17,South,174,6.0,6.0,49,0.00,CLR,,0.00,WeatherDisplay:10.37,2013-03-14 13:03:00,
2013-03-14 08:08:00,42.3,24.5,30.17,ESE,110,8.1,8.1,49,0.00,CLR,,0.00,WeatherDisplay:10.37,2013-03-14 13:08:00,
2013-03-14 08:13:00,42.2,24.4,30.16,SSE,162,6.9,6.9,49,0.00,CLR,,0.00,WeatherDisplay:10.37,2013-03-14 13:13:00,
2013-03-14 08:18:00,42.2,24.9,30.16,SSW,198,7.0,7.0,50,0.00,CLR,,0.00,WeatherDisplay:10.37,2013-03-14 13:18:00,
2013-03-14 08:23:00,42.1,24.8,30.16,South,188,8.1,8.1,50,0.00,CLR,,0.00,WeatherDisplay:10.37,2013-03-14 13:23:00,
2013-03-14 08:28:00,42.1,24.8,30.15,SSW,210,8.1,8.1,50,0.00,CLR,,0.00,WeatherDisplay:10.37,2013-03-14 13:28:00,
2013-03-14 08:33:00,42.1,25.3,30.15,South,180,8.0,8.0,51,0.00,CLR,,0.00,WeatherDisplay:10.37,2013-03-14 13:33:00,
2013-03-14 08:38:00,42.1,25.3,30.15,SSE,162,10.4,10.4,51,0.00,CLR,,0.00,WeatherDisplay:10.37,2013-03-14 13:38:00,
2013-03-14 08:43:00,42.3,25.4,30.14,SSE,155,6.9,6.9,51,0.00,CLR,,0.00,WeatherDisplay:10.37,2013-03-14 13:43:00,
2013-03-14 08:48:00,42.4,25.5,30.14,NNW,346,9.2,9.2,51,0.00,CLR,,0.00,WeatherDisplay:10.37,2013-03-14 13:48:00,
2013-03-14 08:53:00,42.4,26.0,30.14,South,169,6.9,6.9,52,0.00,CLR,,0.00,WeatherDisplay:10.37,2013-03-14 13:53:00,
2013-03-14 08:58:00,42.6,26.2,30.13,South,171,10.4,10.4,52,0.00,CLR,,0.00,WeatherDisplay:10.37,2013-03-14 13:58:00,
2013-03-14 09:03:00,42.8,26.4,30.14,SE,138,9.0,9.0,52,0.00,CLR,,0.00,WeatherDisplay:10.37,2013-03-14 14:03:00,
2013-03-14 09:08:00,42.9,26.5,30.13,WSW,252,10.4,10.4,52,0.00,CLR,,0.00,WeatherDisplay:10.37,2013-03-14 14:08:00,
2013-03-14 09:13:00,43.3,26.8,30.13,South,186,10.0,10.0,52,0.00,CLR,,0.00,WeatherDisplay:10.37,2013-03-14 14:13:00,
2013-03-14 09:18:00,43.6,27.1,30.13,South,186,11.5,11.5,52,0.00,CLR,,0.00,WeatherDisplay:10.37,2013-03-14 14:18:00,
2013-03-14 09:23:00,43.8,27.3,30.13,South,174,9.2,9.2,52,0.00,CLR,,0.00,WeatherDisplay:10.37,2013-03-14 14:23:00,
2013-03-14 09:28:00,44.2,27.7,30.14,South,171,11.5,11.5,52,0.00,CLR,,0.00,WeatherDisplay:10.37,2013-03-14 14:28:00,
2013-03-14 09:33:00,44.5,28.4,30.13,WSW,245,10.4,10.4,53,0.00,CLR,,0.00,WeatherDisplay:10.37,2013-03-14 14:33:00,
2013-03-14 09:38:00,44.8,28.7,30.13,SSE,161,11.5,11.5,53,0.00,CLR,,0.00,WeatherDisplay:10.37,2013-03-14 14:38:00,
2013-03-14 09:43:00,45.2,29.1,30.13,SSE,168,9.2,9.2,53,0.00,CLR,,0.00,WeatherDisplay:10.37,2013-03-14 14:43:00,
2013-03-14 09:48:00,45.6,29.4,30.13,South,169,8.1,8.1,53,0.00,CLR,,0.00,WeatherDisplay:10.37,2013-03-14 14:48:00,
2013-03-14 09:53:00,45.9,29.7,30.12,South,180,16.1,16.1,53,0.00,CLR,,0.00,WeatherDisplay:10.37,2013-03-14 14:53:00,
2013-03-14 09:58:00,46.3,30.1,30.12,SSW,211,10.4,10.4,53,0.00,CLR,,0.00,WeatherDisplay:10.37,2013-03-14 14:58:00,
2013-03-14 10:04:00,46.7,30.5,30.12,NNW,335,8.1,8.1,53,0.00,CLR,,0.00,WeatherDisplay:10.37,2013-03-14 15:04:00,
2013-03-14 10:09:00,47.1,30.8,30.12,SSW,192,6.9,6.9,53,0.00,CLR,,0.00,WeatherDisplay:10.37,2013-03-14 15:09:00,
2013-03-14 10:14:00,47.4,31.1,30.12,WNW,302,9.0,9.0,53,0.00,CLR,,0.00,WeatherDisplay:10.37,2013-03-14 15:14:00,
2013-03-14 10:19:00,47.7,31.4,30.12,South,170,8.1,8.1,53,0.00,CLR,,0.00,WeatherDisplay:10.37,2013-03-14 15:19:00,
2013-03-14 10:24:00,48.3,31.9,30.11,WNW,286,9.2,9.2,53,0.00,CLR,,0.00,WeatherDisplay:10.37,2013-03-14 15:24:00,
2013-03-14 10:29:00,48.9,32.5,30.11,SSE,166,7.0,7.0,53,0.00,CLR,,0.00,WeatherDisplay:10.37,2013-03-14 15:29:00,
2013-03-14 10:34:00,49.1,32.2,30.12,South,188,6.9,6.9,52,0.00,CLR,,0.00,WeatherDisplay:10.37,2013-03-14 15:34:00,
2013-03-14 10:39:00,49.2,32.8,30.11,WNW,295,6.9,6.9,53,0.00,CLR,,0.00,WeatherDisplay:10.37,2013-03-14 15:39:00,
2013-03-14 10:44:00,49.7,32.8,30.11,WNW,294,11.5,11.5,52,0.00,CLR,,0.00,WeatherDisplay:10.37,2013-03-14 15:44:00,
2013-03-14 10:49:00,50.5,33.5,30.11,West,264,4.0,4.0,52,0.00,CLR,,0.00,WeatherDisplay:10.37,2013-03-14 15:49:00,
2013-03-14 10:54:00,50.8,33.3,30.11,WNW,286,10.4,10.4,51,0.00,CLR,,0.00,WeatherDisplay:10.37,2013-03-14 15:54:00,
2013-03-14 10:59:00,51.2,33.7,30.11,SSW,198,9.2,9.2,51,0.00,CLR,,0.00,WeatherDisplay:10.37,2013-03-14 15:59:00,
2013-03-14 11:04:00,51.6,34.0,30.11,West,261,10.0,10.0,51,0.00,CLR,,0.00,WeatherDisplay:10.37,2013-03-14 16:04:00,
2013-03-14 11:09:00,51.7,34.1,30.10,SW,216,8.1,8.1,51,0.00,CLR,,0.00,WeatherDisplay:10.37,2013-03-14 16:09:00,
2013-03-14 11:14:00,52.5,34.9,30.11,NW,309,5.8,5.8,51,0.00,CLR,,0.00,WeatherDisplay:10.37,2013-03-14 16:14:00,
2013-03-14 11:19:00,53.4,35.2,30.11,SW,221,4.6,4.6,50,0.00,CLR,,0.00,WeatherDisplay:10.37,2013-03-14 16:19:00,
2013-03-14 11:24:00,54.2,35.4,30.11,West,271,10.4,10.4,49,0.00,CLR,,0.00,WeatherDisplay:10.37,2013-03-14 16:24:00,
2013-03-14 11:29:00,54.6,35.8,30.11,SSW,207,6.9,6.9,49,0.00,CLR,,0.00,WeatherDisplay:10.37,2013-03-14 16:29:00,
2013-03-14 11:34:00,55.6,36.2,30.10,SSW,202,3.5,3.5,48,0.00,CLR,,0.00,WeatherDisplay:10.37,2013-03-14 16:34:00,
2013-03-14 11:39:00,56.1,36.1,30.10,NW,311,8.1,8.1,47,0.00,CLR,,0.00,WeatherDisplay:10.37,2013-03-14 16:39:00,
2013-03-14 11:44:00,56.6,36.6,30.10,South,185,6.9,6.9,47,0.00,CLR,,0.00,WeatherDisplay:10.37,2013-03-14 16:44:00,
2013-03-14 11:49:00,56.9,36.9,30.10,SSE,167,5.8,5.8,47,0.00,CLR,,0.00,WeatherDisplay:10.37,2013-03-14 16:49:00,
2013-03-14 11:54:00,57.7,37.0,30.10,SSE,163,8.1,8.1,46,0.00,CLR,,0.00,WeatherDisplay:10.37,2013-03-14 16:54:00,
2013-03-14 11:59:00,58.6,37.3,30.10,West,260,9.2,9.2,45,0.00,CLR,,0.00,WeatherDisplay:10.37,2013-03-14 16:59:00,
2013-03-14 12:04:00,58.9,37.6,30.09,SSE,148,10.4,10.4,45,0.00,CLR,,0.00,WeatherDisplay:10.37,2013-03-14 17:04:00,
2013-03-14 12:09:00,59.5,37.6,30.10,West,278,10.4,10.4,44,0.00,CLR,,0.00,WeatherDisplay:10.37,2013-03-14 17:09:00,
2013-03-14 12:14:00,59.5,37.6,30.09,WNW,303,8.1,8.1,44,0.00,CLR,,0.00,WeatherDisplay:10.37,2013-03-14 17:14:00,
2013-03-14 12:19:00,60.6,38.6,30.09,West,261,5.8,5.8,44,0.00,CLR,,0.00,WeatherDisplay:10.37,2013-03-14 17:19:00,
2013-03-14 12:24:00,60.9,38.2,30.09,West,272,12.7,12.7,43,0.00,CLR,,0.00,WeatherDisplay:10.37,2013-03-14 17:24:00,
2013-03-14 12:29:00,60.2,38.2,30.09,WSW,242,8.1,8.1,44,0.00,CLR,,0.00,WeatherDisplay:10.37,2013-03-14 17:29:00,
2013-03-14 12:34:00,61.2,38.5,30.09,WNW,298,5.0,5.0,43,0.00,CLR,,0.00,WeatherDisplay:10.37,2013-03-14 17:34:00,
2013-03-14 12:39:00,61.0,38.3,30.09,WNW,290,5.8,5.8,43,0.00,CLR,,0.00,WeatherDisplay:10.37,2013-03-14 17:39:00,
2013-03-14 12:44:00,61.0,38.3,30.10,West,273,8.1,8.1,43,0.00,CLR,,0.00,WeatherDisplay:10.37,2013-03-14 17:44:00,
2013-03-14 12:49:00,61.3,38.6,30.10,West,273,6.0,6.0,43,0.00,CLR,,0.00,WeatherDisplay:10.37,2013-03-14 17:49:00,
2013-03-14 12:54:00,61.1,38.4,30.11,West,263,10.4,10.4,43,0.00,CLR,,0.00,WeatherDisplay:10.37,2013-03-14 17:54:00,
2013-03-14 12:59:00,61.6,38.9,30.11,WSW,240,9.2,9.2,43,0.00,CLR,,0.00,WeatherDisplay:10.37,2013-03-14 17:59:00,
2013-03-14 13:04:00,60.9,38.8,30.10,West,275,6.9,6.9,44,0.00,CLR,,0.00,WeatherDisplay:10.37,2013-03-14 18:04:00,
2013-03-14 13:09:00,61.6,38.9,30.10,West,259,10.4,10.4,43,0.00,CLR,,0.00,WeatherDisplay:10.37,2013-03-14 18:09:00,
2013-03-14 13:14:00,61.7,39.0,30.09,South,173,6.9,6.9,43,0.00,CLR,,0.00,WeatherDisplay:10.37,2013-03-14 18:14:00,
2013-03-14 13:19:00,62.5,39.1,30.09,South,184,6.9,6.9,42,0.00,CLR,,0.00,WeatherDisplay:10.37,2013-03-14 18:19:00,
2013-03-14 13:24:00,62.9,38.8,30.09,NW,308,3.5,3.5,41,0.00,CLR,,0.00,WeatherDisplay:10.37,2013-03-14 18:24:00,
2013-03-14 13:29:00,62.6,39.2,30.09,West,273,5.8,5.8,42,0.00,CLR,,0.00,WeatherDisplay:10.37,2013-03-14 18:29:00,
2013-03-14 13:35:00,63.0,39.5,30.09,WNW,283,3.0,6.0,42,0.00,CLR,,0.00,WeatherDisplay:10.37,2013-03-14 18:35:00,
2013-03-14 13:40:00,63.6,39.4,30.08,West,281,3.0,6.0,41,0.00,CLR,,0.00,WeatherDisplay:10.37,2013-03-14 18:40:00,
2013-03-14 13:45:00,62.5,39.1,30.08,WSW,257,8.1,8.1,42,0.00,CLR,,0.00,WeatherDisplay:10.37,2013-03-14 18:45:00,
2013-03-14 13:50:00,63.4,39.9,30.08,West,272,5.8,5.8,42,0.00,CLR,,0.00,WeatherDisplay:10.37,2013-03-14 18:50:00,
2013-03-14 13:55:00,64.1,39.9,30.08,East,84,4.6,4.6,41,0.00,CLR,,0.00,WeatherDisplay:10.37,2013-03-14 18:55:00,
2013-03-14 14:00:00,64.0,39.2,30.08,West,276,2.0,6.0,40,0.00,CLR,,0.00,WeatherDisplay:10.37,2013-03-14 19:00:00,
2013-03-14 14:05:00,64.9,40.0,30.08,SSW,197,6.9,6.9,40,0.00,CLR,,0.00,WeatherDisplay:10.37,2013-03-14 19:05:00,
2013-03-14 14:10:00,65.3,40.4,30.08,West,262,2.0,5.0,40,0.00,CLR,,0.00,WeatherDisplay:10.37,2013-03-14 19:10:00,
2013-03-14 14:15:00,65.5,39.9,30.08,SW,235,3.0,7.0,39,0.00,CLR,,0.00,WeatherDisplay:10.37,2013-03-14 19:15:00,
2013-03-14 14:20:00,65.5,40.5,30.07,South,180,5.8,0.0,40,0.00,CLR,,0.00,WeatherDisplay:10.37,2013-03-14 19:20:00,
2013-03-14 14:25:00,66.6,40.2,30.08,West,261,4.6,4.6,38,0.00,CLR,,0.00,WeatherDisplay:10.37,2013-03-14 19:25:00,
2013-03-14 14:30:00,65.9,40.2,30.07,SW,223,3.5,3.5,39,0.00,CLR,,0.00,WeatherDisplay:10.37,2013-03-14 19:30:00,
2013-03-14 14:35:00,66.9,40.5,30.07,WSW,252,1.0,7.0,38,0.00,CLR,,0.00,WeatherDisplay:10.37,2013-03-14 19:35:00,
2013-03-14 14:40:00,67.2,40.0,30.08,West,264,3.5,3.5,37,0.00,CLR,,0.00,WeatherDisplay:10.37,2013-03-14 19:40:00,
2013-03-14 14:45:00,67.2,40.7,30.07,SW,235,2.0,5.0,38,0.00,CLR,,0.00,WeatherDisplay:10.37,2013-03-14 19:45:00,
2013-03-14 14:50:00,66.8,39.7,30.07,West,276,3.0,8.0,37,0.00,CLR,,0.00,WeatherDisplay:10.37,2013-03-14 19:50:00,
2013-03-14 14:55:00,67.5,40.3,30.07,West,271,3.0,6.0,37,0.00,CLR,,0.00,WeatherDisplay:10.37,2013-03-14 19:55:00,
2013-03-14 15:00:00,68.0,40.7,30.07,West,280,4.0,4.8,37,0.00,CLR,,0.00,WeatherDisplay:10.37,2013-03-14 20:00:00,
2013-03-14 15:05:00,68.5,39.8,30.07,WNW,298,4.0,4.0,35,0.00,CLR,,0.00,WeatherDisplay:10.37,2013-03-14 20:05:00,
2013-03-14 15:10:00,68.3,40.3,30.07,NW,318,4.6,4.6,36,0.00,CLR,,0.00,WeatherDisplay:10.37,2013-03-14 20:10:00,
2013-03-14 15:15:00,68.8,40.0,30.06,West,281,1.0,5.0,35,0.00,CLR,,0.00,WeatherDisplay:10.37,2013-03-14 20:15:00,
2013-03-14 15:20:00,69.6,40.0,30.06,West,263,8.1,8.1,34,0.00,CLR,,0.00,WeatherDisplay:10.37,2013-03-14 20:20:00,
2013-03-14 15:25:00,69.1,40.3,30.06,WNW,290,1.0,6.0,35,0.00,CLR,,0.00,WeatherDisplay:10.37,2013-03-14 20:25:00,
2013-03-14 15:30:00,69.6,40.0,30.06,West,270,0.0,7.0,34,0.00,CLR,,0.00,WeatherDisplay:10.37,2013-03-14 20:30:00,
2013-03-14 15:35:00,70.3,40.6,30.06,WNW,298,5.8,5.8,34,0.00,CLR,,0.00,WeatherDisplay:10.37,2013-03-14 20:35:00,
2013-03-14 15:40:00,70.7,40.2,30.06,WSW,242,2.0,6.0,33,0.00,CLR,,0.00,WeatherDisplay:10.37,2013-03-14 20:40:00,
2013-03-14 15:45:00,70.8,40.3,30.06,SE,134,2.3,2.3,33,0.00,CLR,,0.00,WeatherDisplay:10.37,2013-03-14 20:45:00,
2013-03-14 15:50:00,71.1,40.5,30.06,West,275,3.0,6.0,33,0.00,CLR,,0.00,WeatherDisplay:10.37,2013-03-14 20:50:00,
2013-03-14 15:55:00,70.6,40.1,30.05,WSW,244,4.6,4.6,33,0.00,CLR,,0.00,WeatherDisplay:10.37,2013-03-14 20:55:00,
2013-03-14 16:00:00,71.0,39.7,30.06,WSW,254,1.0,4.0,32,0.00,CLR,,0.00,WeatherDisplay:10.37,2013-03-14 21:00:00,
2013-03-14 16:05:00,71.8,40.4,30.06,WSW,257,0.0,4.0,32,0.00,CLR,,0.00,WeatherDisplay:10.37,2013-03-14 21:05:00,
2013-03-14 16:10:00,71.1,39.7,30.06,WNW,284,4.6,4.6,32,0.00,CLR,,0.00,WeatherDisplay:10.37,2013-03-14 21:10:00,
2013-03-14 16:15:00,70.8,40.2,30.05,West,276,0.0,6.0,33,0.00,CLR,,0.00,WeatherDisplay:10.37,2013-03-14 21:15:00,
2013-03-14 16:20:00,72.1,40.6,30.05,West,273,1.0,5.0,32,0.00,CLR,,0.00,WeatherDisplay:10.37,2013-03-14 21:20:00,
2013-03-14 16:25:00,72.4,40.0,30.05,West,271,0.0,5.0,31,0.00,CLR,,0.00,WeatherDisplay:10.37,2013-03-14 21:25:00,
2013-03-14 16:30:00,72.6,40.2,30.05,West,278,3.5,3.5,31,0.00,CLR,,0.00,WeatherDisplay:10.37,2013-03-14 21:30:00,
2013-03-14 16:35:00,72.2,39.9,30.05,West,272,0.0,5.0,31,0.00,CLR,,0.00,WeatherDisplay:10.37,2013-03-14 21:35:00,
2013-03-14 16:40:00,71.9,39.6,30.04,WNW,284,3.5,0.0,31,0.00,CLR,,0.00,WeatherDisplay:10.37,2013-03-14 21:40:00,
2013-03-14 16:45:00,73.1,40.7,30.04,WSW,258,4.0,4.0,31,0.00,CLR,,0.00,WeatherDisplay:10.37,2013-03-14 21:45:00,
2013-03-14 16:50:00,73.0,39.7,30.05,SSW,198,0.0,6.0,30,0.00,CLR,,0.00,WeatherDisplay:10.37,2013-03-14 21:50:00,
2013-03-14 16:55:00,72.9,40.5,30.04,WSW,253,2.0,5.0,31,0.00,CLR,,0.00,WeatherDisplay:10.37,2013-03-14 21:55:00,
2013-03-14 17:00:00,73.2,39.9,30.04,West,274,3.5,3.5,30,0.00,CLR,,0.00,WeatherDisplay:10.37,2013-03-14 22:00:00,
2013-03-14 17:05:00,73.3,40.0,30.04,WNW,283,0.0,5.0,30,0.00,CLR,,0.00,WeatherDisplay:10.37,2013-03-14 22:05:00,
2013-03-14 17:10:00,73.4,40.1,30.04,NW,306,4.6,4.6,30,0.00,CLR,,0.00,WeatherDisplay:10.37,2013-03-14 22:10:00,
2013-03-14 17:15:00,72.8,40.4,30.05,West,276,2.0,6.0,31,0.00,CLR,,0.00,WeatherDisplay:10.37,2013-03-14 22:15:00,
2013-03-14 17:20:00,72.9,39.6,30.04,South,180,1.1,1.1,30,0.00,CLR,,0.00,WeatherDisplay:10.37,2013-03-14 22:20:00,
2013-03-14 17:25:00,73.0,39.7,30.04,WSW,250,5.8,5.8,30,0.00,CLR,,0.00,WeatherDisplay:10.37,2013-03-14 22:25:00,
2013-03-14 17:30:00,73.0,39.7,30.04,WSW,250,1.1,1.1,30,0.00,CLR,,0.00,WeatherDisplay:10.37,2013-03-14 22:30:00,
2013-03-14 17:35:00,72.4,40.0,30.04,WNW,282,1.0,5.0,31,0.00,CLR,,0.00,WeatherDisplay:10.37,2013-03-14 22:35:00,
2013-03-14 17:40:00,72.9,39.6,30.04,West,275,1.1,0.0,30,0.00,CLR,,0.00,WeatherDisplay:10.37,2013-03-14 22:40:00,
2013-03-14 17:45:00,73.4,40.1,30.04,West,277,1.1,1.1,30,0.00,CLR,,0.00,WeatherDisplay:10.37,2013-03-14 22:45:00,
2013-03-14 17:50:00,73.5,40.2,30.04,WSW,247,3.5,0.0,30,0.00,CLR,,0.00,WeatherDisplay:10.37,2013-03-14 22:50:00,
2013-03-14 17:55:00,73.1,39.0,30.03,West,276,0.0,4.0,29,0.00,CLR,,0.00,WeatherDisplay:10.37,2013-03-14 22:55:00,
2013-03-14 18:00:00,73.5,39.3,30.03,WNW,298,0.0,0.0,29,0.00,CLR,,0.00,WeatherDisplay:10.37,2013-03-14 23:00:00,
2013-03-14 18:05:00,74.0,39.7,30.03,WNW,303,1.1,0.0,29,0.00,CLR,,0.00,WeatherDisplay:10.37,2013-03-14 23:05:00,
2013-03-14 18:10:00,74.1,39.8,30.03,West,267,1.1,0.0,29,0.00,CLR,,0.00,WeatherDisplay:10.37,2013-03-14 23:10:00,
2013-03-14 18:15:00,73.6,39.4,30.03,West,276,2.3,2.3,29,0.00,CLR,,0.00,WeatherDisplay:10.37,2013-03-14 23:15:00,
2013-03-14 18:20:00,72.9,38.8,30.03,WNW,284,0.0,4.0,29,0.00,CLR,,0.00,WeatherDisplay:10.37,2013-03-14 23:20:00,
2013-03-14 18:25:00,73.2,39.0,30.03,WNW,292,0.0,0.2,29,0.00,CLR,,0.00,WeatherDisplay:10.37,2013-03-14 23:25:00,
2013-03-14 18:30:00,73.3,39.1,30.03,West,273,1.1,1.1,29,0.00,CLR,,0.00,WeatherDisplay:10.37,2013-03-14 23:30:00,
2013-03-14 18:35:00,73.3,39.1,30.03,WNW,285,0.0,3.0,29,0.00,CLR,,0.00,WeatherDisplay:10.37,2013-03-14 23:35:00,
2013-03-14 18:40:00,73.2,38.1,30.03,West,271,1.1,1.1,28,0.00,CLR,,0.00,WeatherDisplay:10.37,2013-03-14 23:40:00,
2013-03-14 18:45:00,73.0,37.0,30.04,West,266,0.0,6.0,27,0.00,CLR,,0.00,WeatherDisplay:10.37,2013-03-14 23:45:00,
2013-03-14 18:50:00,72.6,36.7,30.04,West,265,1.1,0.0,27,0.00,CLR,,0.00,WeatherDisplay:10.37,2013-03-14 23:50:00,
2013-03-14 18:55:00,72.2,36.4,30.04,West,260,0.0,4.0,27,0.00,CLR,,0.00,WeatherDisplay:10.37,2013-03-14 23:55:00,
2013-03-14 19:00:00,71.9,37.0,30.04,West,264,2.3,0.0,28,0.00,CLR,,0.00,WeatherDisplay:10.37,2013-03-15 00:00:00,
2013-03-14 19:05:00,71.6,36.7,30.04,West,264,0.0,1.0,28,0.00,CLR,,0.00,WeatherDisplay:10.37,2013-03-15 00:05:00,
2013-03-14 19:10:00,71.0,37.1,30.05,West,264,1.1,0.0,29,0.00,CLR,,0.00,WeatherDisplay:10.37,2013-03-15 00:10:00,
2013-03-14 19:15:00,70.6,36.8,30.05,West,264,0.0,0.0,29,0.00,CLR,,0.00,WeatherDisplay:10.37,2013-03-15 00:15:00,
2013-03-14 19:20:00,70.2,36.4,30.05,West,264,0.0,0.0,29,0.00,CLR,,0.00,WeatherDisplay:10.37,2013-03-15 00:20:00,
2013-03-14 19:25:00,69.8,36.9,30.05,West,264,0.0,0.0,30,0.00,CLR,,0.00,WeatherDisplay:10.37,2013-03-15 00:25:00,
2013-03-14 19:30:00,69.4,37.5,30.05,West,264,0.0,0.0,31,0.00,CLR,,0.00,WeatherDisplay:10.37,2013-03-15 00:30:00,
2013-03-14 19:35:00,69.0,37.1,30.06,West,264,0.0,0.0,31,0.00,CLR,,0.00,WeatherDisplay:10.37,2013-03-15 00:35:00,
2013-03-14 19:40:00,68.6,37.5,30.05,West,264,0.0,0.0,32,0.00,CLR,,0.00,WeatherDisplay:10.37,2013-03-15 00:40:00,
2013-03-14 19:45:00,68.2,37.9,30.05,West,264,0.0,0.0,33,0.00,CLR,,0.00,WeatherDisplay:10.37,2013-03-15 00:45:00,
2013-03-14 19:50:00,67.5,38.1,30.05,West,264,0.0,0.0,34,0.00,CLR,,0.00,WeatherDisplay:10.37,2013-03-15 00:50:00,
2013-03-14 19:55:00,66.9,38.3,30.05,West,264,0.0,0.0,35,0.00,CLR,,0.00,WeatherDisplay:10.37,2013-03-15 00:55:00,
2013-03-14 20:00:00,65.8,38.1,30.06,West,264,0.0,0.0,36,0.00,,,0.00,WeatherDisplay:10.37,2013-03-15 01:00:00,
2013-03-14 20:05:00,64.6,39.1,30.06,West,264,0.0,0.0,39,0.00,,,0.00,WeatherDisplay:10.37,2013-03-15 01:05:00,
2013-03-14 20:10:00,63.6,38.8,30.06,West,264,0.0,0.0,40,0.00,,,0.00,WeatherDisplay:10.37,2013-03-15 01:10:00,
2013-03-14 20:15:00,62.8,38.7,30.06,West,264,0.0,0.0,41,0.00,,,0.00,WeatherDisplay:10.37,2013-03-15 01:15:00,
2013-03-14 20:20:00,61.8,38.4,30.06,West,264,0.0,0.0,42,0.00,,,0.00,WeatherDisplay:10.37,2013-03-15 01:20:00,
2013-03-14 20:25:00,61.3,38.6,30.05,West,264,0.0,0.0,43,0.00,,,0.00,WeatherDisplay:10.37,2013-03-15 01:25:00,
2013-03-14 20:30:00,61.0,38.3,30.06,West,264,0.0,0.0,43,0.00,,,0.00,WeatherDisplay:10.37,2013-03-15 01:30:00,
2013-03-14 20:35:00,60.7,38.1,30.06,West,264,0.0,0.0,43,0.00,,,0.00,WeatherDisplay:10.37,2013-03-15 01:35:00,
2013-03-14 20:40:00,60.4,38.4,30.06,West,264,0.0,0.0,44,0.00,,,0.00,WeatherDisplay:10.37,2013-03-15 01:40:00,
2013-03-14 20:45:00,59.9,38.5,30.06,West,264,0.0,0.0,45,0.00,,,0.00,WeatherDisplay:10.37,2013-03-15 01:45:00,
2013-03-14 20:50:00,59.3,38.5,30.06,West,264,0.0,0.0,46,0.00,,,0.00,WeatherDisplay:10.37,2013-03-15 01:50:00,
2013-03-14 20:55:00,58.6,38.4,30.06,West,264,0.0,0.0,47,0.00,,,0.00,WeatherDisplay:10.37,2013-03-15 01:55:00,
2013-03-14 21:00:00,58.2,38.0,30.06,West,264,0.0,0.0,47,0.00,,,0.00,WeatherDisplay:10.37,2013-03-15 02:00:00,
2013-03-14 21:05:00,57.8,38.2,30.06,West,264,0.0,0.0,48,0.00,,,0.00,WeatherDisplay:10.37,2013-03-15 02:05:00,
2013-03-14 21:10:00,57.6,38.0,30.06,West,264,0.0,0.0,48,0.00,,,0.00,WeatherDisplay:10.37,2013-03-15 02:10:00,
2013-03-14 21:15:00,57.4,37.9,30.06,West,264,0.0,0.0,48,0.00,,,0.00,WeatherDisplay:10.37,2013-03-15 02:15:00,
2013-03-14 21:20:00,57.3,38.3,30.06,West,264,0.0,0.0,49,0.00,,,0.00,WeatherDisplay:10.37,2013-03-15 02:20:00,
2013-03-14 21:25:00,57.0,38.5,30.06,West,264,0.0,0.0,50,0.00,,,0.00,WeatherDisplay:10.37,2013-03-15 02:25:00,
2013-03-14 21:30:00,56.6,38.2,30.06,West,264,0.0,0.0,50,0.00,,,0.00,WeatherDisplay:10.37,2013-03-15 02:30:00,
2013-03-14 21:35:00,56.3,37.9,30.06,West,264,0.0,0.0,50,0.00,,,0.00,WeatherDisplay:10.37,2013-03-15 02:35:00,
2013-03-14 21:40:00,55.9,38.5,30.06,West,264,0.0,0.0,52,0.00,,,0.00,WeatherDisplay:10.37,2013-03-15 02:40:00,
2013-03-14 21:45:00,55.5,38.1,30.07,West,264,0.0,0.0,52,0.00,,,0.00,WeatherDisplay:10.37,2013-03-15 02:45:00,
2013-03-14 21:50:00,55.1,37.8,30.07,West,264,0.0,0.0,52,0.00,,,0.00,WeatherDisplay:10.37,2013-03-15 02:50:00,
2013-03-14 21:55:00,54.8,37.9,30.07,West,264,0.0,0.0,53,0.00,,,0.00,WeatherDisplay:10.37,2013-03-15 02:55:00,
2013-03-14 22:00:00,54.5,38.2,30.07,West,264,0.0,0.0,54,0.00,,,0.00,WeatherDisplay:10.37,2013-03-15 03:00:00,
2013-03-14 22:05:00,54.2,37.9,30.07,West,264,0.0,0.0,54,0.00,,,0.00,WeatherDisplay:10.37,2013-03-15 03:05:00,
2013-03-14 22:10:00,53.9,38.6,30.07,West,264,0.0,0.0,56,0.00,,,0.00,WeatherDisplay:10.37,2013-03-15 03:10:00,
2013-03-14 22:15:00,53.5,38.2,30.07,West,264,0.0,0.0,56,0.00,,,0.00,WeatherDisplay:10.37,2013-03-15 03:15:00,
2013-03-14 22:20:00,53.3,38.0,30.07,West,264,0.0,0.0,56,0.00,,,0.00,WeatherDisplay:10.37,2013-03-15 03:20:00,
2013-03-14 22:25:00,53.2,37.9,30.07,West,264,0.0,0.0,56,0.00,,,0.00,WeatherDisplay:10.37,2013-03-15 03:25:00,
2013-03-14 22:30:00,53.1,37.8,30.07,West,264,0.0,0.0,56,0.00,,,0.00,WeatherDisplay:10.37,2013-03-15 03:30:00,
2013-03-14 22:35:00,53.0,38.2,30.07,West,264,0.0,0.0,57,0.00,,,0.00,WeatherDisplay:10.37,2013-03-15 03:35:00,
2013-03-14 22:40:00,52.9,38.1,30.08,West,264,0.0,0.0,57,0.00,,,0.00,WeatherDisplay:10.37,2013-03-15 03:40:00,
2013-03-14 22:45:00,52.6,38.2,30.07,West,264,0.0,0.0,58,0.00,,,0.00,WeatherDisplay:10.37,2013-03-15 03:45:00,
2013-03-14 22:50:00,52.3,38.0,30.07,West,264,0.0,0.0,58,0.00,,,0.00,WeatherDisplay:10.37,2013-03-15 03:50:00,
2013-03-14 22:55:00,52.1,37.8,30.08,West,264,0.0,0.0,58,0.00,,,0.00,WeatherDisplay:10.37,2013-03-15 03:55:00,
2013-03-14 23:00:00,51.7,37.4,30.08,West,264,0.0,0.0,58,0.00,,,0.00,WeatherDisplay:10.37,2013-03-15 04:00:00,
2013-03-14 23:05:00,51.4,37.5,30.07,West,264,0.0,0.0,59,0.00,,,0.00,WeatherDisplay:10.37,2013-03-15 04:05:00,
2013-03-14 23:10:00,51.2,37.4,30.07,West,264,0.0,0.0,59,0.00,,,0.00,WeatherDisplay:10.37,2013-03-15 04:10:00,
2013-03-14 23:15:00,50.9,37.1,30.07,West,264,0.0,0.0,59,0.00,,,0.00,WeatherDisplay:10.37,2013-03-15 04:15:00,
2013-03-14 23:20:00,50.7,37.3,30.07,West,264,0.0,0.0,60,0.00,,,0.00,WeatherDisplay:10.37,2013-03-15 04:20:00,
2013-03-14 23:25:00,50.5,37.5,30.07,West,264,0.0,0.0,61,0.00,,,0.00,WeatherDisplay:10.37,2013-03-15 04:25:00,
2013-03-14 23:30:00,50.3,37.4,30.07,West,264,0.0,0.0,61,0.00,,,0.00,WeatherDisplay:10.37,2013-03-15 04:30:00,
2013-03-14 23:35:00,50.2,37.3,30.07,West,264,0.0,0.0,61,0.00,,,0.00,WeatherDisplay:10.37,2013-03-15 04:35:00,
2013-03-14 23:40:00,50.0,37.5,30.07,West,264,0.0,0.0,62,0.00,,,0.00,WeatherDisplay:10.37,2013-03-15 04:40:00,
2013-03-14 23:45:00,49.9,37.0,30.07,West,264,0.0,0.0,61,0.00,,,0.00,WeatherDisplay:10.37,2013-03-15 04:45:00,
2013-03-14 23:50:00,49.7,36.8,30.07,West,264,0.0,0.0,61,0.00,,,0.00,WeatherDisplay:10.37,2013-03-15 04:50:00,
2013-03-14 23:55:00,49.5,37.0,30.07,West,264,0.0,0.0,62,0.00,,,0.00,WeatherDisplay:10.37,2013-03-15 04:55:00,